Location: Crocus Hill
(18.2167°N, 63.0667°W)
Time: 03:18:27
(UTC+00:00)

Cosmos 1908 - Pass Details

Date: 26 January 2020
Orbit: 511 x 532 km, 82.5° (Epoch: 16 February)

Event Time Altitude Azimuth Distance (km) Brightness Sun altitude
Rises 09:51:54 0° 209° (SSW) 2,660 6.7 -13.2°
Reaches altitude 10° 09:54:22 10° 224° (SW) 1,773 5.6 -12.7°
Maximum altitude 09:57:29 23° 277° (W) 1,155 4.3 -12.0°
Drops below altitude 10° 10:00:38 10° 331° (NNW) 1,775 5.5 -11.2°
Sets 10:03:06 0° 346° (NNW) 2,665 6.5 -10.7°
